sat.trackr.live / text

‹ back to catalog

STARLINK-11353 [DTC]

NORAD 61941 · 2024-209C

PAYLOAD ACTIVE UNKNOWN

§ Identity

Operator
Country
US
Launch date
2024-11-14
Launch site
AFWTR
Launch vehicle
Mass (kg)
RCS (m²)

Purposes: comms

External: N2YO · Heavens-Above · Gunter

§ Orbital elements

Epoch: 2026-05-24T23:20:49.107840Z

Period
91.73 min
Inclination
53.1576°
Eccentricity
0.0000970
Mean motion
15.69748713 rev/d
Perigee alt
359.0 km
Apogee alt
360.3 km
Semi-major
6,737.8 km
B*
9.5595e-4
RAAN
354.8770°
Arg perigee
84.9050°
Mean anomaly
275.2078°
Rev number
8,866

§ Raw data

STARLINK-11353 [DTC]1 61941U 24209C   26144.97279060  .00117058  00000+0  95595-3 0  99922 61941  53.1576 354.8770 0000970  84.9050 275.2078 15.69748713 88666

JSON: /api/v1/satellites/61941 · /tle

For live sub-satellite position, see the globe view (requires WebGL).

§ Visibility from observer

Set your observer location to see the next 7 days of passes ≥ 10°. The values pass through the URL so the page stays shareable.

No JS? Fill the form by hand. The geolocation button needs JavaScript.